THORAD AGENA D DEB

Satellite information

Favourite Embed

Satellite Type and Status

DEBRISIN ORBIT

Key statistics

Satellite THORAD AGENA D DEB at a glance.

Uptime

20179

Days in orbit

Revolutions

≈ 13.3

Per day

Orbit

SSO

Sun Synchronous Orbit

Inclination

99.8

Latest

Satellite identification and parameters

Extended collection of information and parameters for THORAD AGENA D DEB.

Object identification

Identified? True

Debris? True

Object name: THORAD AGENA D DEB

International designator: 1970-025SZ

Object number (NORAD): 42543

Object ID (CCSDS): 42543

Country: UNITED STATES OF AMERICA (US)

Current information (Y/N): Y

RCS size: SMALL

Orbital parameters

Period: 108.463 minutes

Inclination: 99.8015 deg

SMA: 7533.799 km

Apoapsis: 1293.855 km

Periapsis: 1017.473 km

RAAN: 208.6551 deg

Eccentricy: 0.0183428

Argument of periapsis: 101.6443 deg

Mean anomaly: 260.5327 deg

Mean motion: 13.27644161 rev/day

Mean motion (dot): 0.00000393 rev/day2

B* drag term: 0.00087761 1/REarth

Two-line elements (TLE)

Creation date: June 30, 2025, 5:29 p.m.

Reference frame: TEME

Reference center: EARTH

Epoch: June 30, 2025, 6:53 a.m. UTC

TLE line 0: 0 THORAD AGENA D DEB

TLE line 1: 1 42543U 70025SZ 25181.28741006 .00000393 00000-0 87761-3 0 9994

TLE line 2: 2 42543 99.8015 208.6551 0183428 101.6443 260.5327 13.27644161561488

Live tracking on map

Real-time ground track for satellite THORAD AGENA D DEB.

In-orbit conjunctions

A list of the most updated potential collisions computed for object THORAD AGENA D DEB.

Target Orbit TCA Probability of collision Miss distance Type
SL-6 R/B(2) HEO 2025-04-18 16:31:44 0.0001639566 602.0 (m) ROCKET BODY
COSMOS 886 MEO 2024-11-22 12:57:26 0.0002268691 220.0 (m) PAYLOAD

Associated space launch

Meteorological research and development satellite

THORAD AGENA D DEB was lifted into orbit during the mission ‘Thorad SLV-2G Agena D | Nimbus 4’, on board a Thorad SLV-2G Agena D space rocket.

The launch took place on April 8, 1970, 8:17 a.m. from Space Launch Complex 2E.

For more information about the launch, click the button.

Launch to space Thorad SLV-2G Agena D | Nimbus 4
Thorad SLV-2G Agena D | Nimbus 4

Agency: N/A

Status: Launch Successful

Launch date: April 8, 1970, 8:17 a.m. UTC

Rocket: Thorad SLV-2G Agena D

Launch pad: Space Launch Complex 2E

Location: Vandenberg SFB, CA, USA

...

Latest news about this satellite

There are no fresh news available about this satellite. Check back as we update our databases every day.


Newsletter sign-up

Weekly statistics, charts and insights to help you stay on top of the space industry.